Pittsfield, IL

7:21 AM CDT on July 24, 2016 (GMT -0500)
Pittsfield Penstone Municipal

Weather History for KPPQ - December, 2012

Change the Weather History Date:

Sunday, December 23, 2012

  Actual Average (KUIN) Record (KUIN)
Temperature  
Mean Temperature 30 °F 28 °F  
Max Temperature 35 °F 35 °F 64 °F (1933)
Min Temperature 26 °F 20 °F -21 °F (1989)
Degree Days  
Heating Degree Days 34 37  
Month to date heating degree days 788  
Since 1 July heating degree days 1888  
Cooling Degree Days 0 0  
Month to date cooling degree days 0  
Year to date cooling degree days 1094  
Moisture  
Dew Point 26 °F    
Average Humidity 79    
Maximum Humidity 90    
Minimum Humidity 63    
Precipitation  
Precipitation 0.00 in 0.06 in 2.15 in (1932)
Month to date precipitation 1.77  
Year to date precipitation 36.85  
Sea Level Pressure  
Sea Level Pressure 29.94 in    
Wind  
Wind Speed 4 mph (NNE)    
Max Wind Speed 8 mph    
Max Gust Speed -    
Visibility 9 miles    
Events      
T = Trace of Precipitation, MM = Missing Value Source: NWS Daily Summary

Daily Weather History Graph

Daily Weather History Graph

Search for Another Location

Airport or City:

Trip Planner

Search our weather history database for the weather conditions in past years. The results will help you decide how hot, cold, wet, or windy it might be!

Date:

Astronomy

Dec. 23, 2012 Rise Set
Actual Time 7:21 AM CST 4:43 PM CST
Civil Twilight 6:51 AM CST 5:13 PM CST
Nautical Twilight 6:17 AM CST 5:47 PM CST
Astronomical Twilight 5:44 AM CST 6:20 PM CST
Moon 1:34 PM CST (12/23) 3:04 AM CST (12/23)
Length of Visible Light 10h 22m
Length of Day
9h 22m
Waxing Gibbous, 82% of the Moon is Illuminated
Dec 23
Waxing Gibbous
Dec 28
Full
Jan 4
Last Quarter
Jan 11
New
Jan 18
First Quarter

Hourly Weather History & Observations

Time (CST) Temp. Windchill Dew Point Humidity Pressure Visibility Wind Dir Wind Speed Gust Speed Precip Events Conditions
12:15 AM 34.5 °F 29.4 °F 24.1 °F 66% 29.92 in 10.0 mi SW 5.8 mph - N/A   Clear
12:35 AM 34.7 °F - 24.4 °F 66% 29.92 in 10.0 mi Calm Calm - N/A   Clear
12:55 AM 32.9 °F - 23.7 °F 69% 29.91 in 10.0 mi Calm Calm - N/A   Clear
1:15 AM 35.2 °F 32.4 °F 23.7 °F 63% 29.92 in 10.0 mi West 3.5 mph - N/A   Clear
1:35 AM 35.1 °F - 23.7 °F 63% 29.92 in 10.0 mi Calm Calm - N/A   Clear
1:55 AM 34.2 °F 31.2 °F 23.7 °F 66% 29.93 in 10.0 mi WNW 3.5 mph - N/A   Clear
2:15 AM 34.0 °F 31.0 °F 23.9 °F 67% 29.93 in 10.0 mi WNW 3.5 mph - N/A   Clear
2:35 AM 33.3 °F 28.9 °F 23.7 °F 68% 29.93 in 10.0 mi West 4.6 mph - N/A   Clear
2:55 AM 32.0 °F 27.5 °F 23.5 °F 71% 29.93 in 10.0 mi NW 4.6 mph - N/A   Clear
3:15 AM 32.0 °F 28.7 °F 23.9 °F 72% 29.93 in 10.0 mi WNW 3.5 mph - N/A   Clear
3:35 AM 32.0 °F 27.5 °F 24.1 °F 73% 29.93 in 10.0 mi WNW 4.6 mph - N/A   Clear
3:55 AM 31.6 °F 27.0 °F 23.9 °F 73% 29.93 in 10.0 mi WNW 4.6 mph - N/A   Clear
4:15 AM 31.8 °F 26.2 °F 24.3 °F 74% 29.93 in 10.0 mi WNW 5.8 mph - N/A   Clear
4:35 AM 29.1 °F 25.4 °F 23.4 °F 79% 29.93 in 10.0 mi WNW 3.5 mph - N/A   Clear
4:55 AM 28.2 °F 24.4 °F 23.2 °F 81% 29.93 in 10.0 mi WNW 3.5 mph - N/A   Clear
5:15 AM 29.1 °F 23.0 °F 23.5 °F 80% 29.93 in 10.0 mi NW 5.8 mph - N/A   Clear
5:35 AM 28.6 °F 22.4 °F 23.7 °F 82% 29.93 in 10.0 mi NNW 5.8 mph - N/A   Clear
5:55 AM 30.2 °F 24.3 °F 24.4 °F 79% 29.93 in 10.0 mi North 5.8 mph - N/A   Clear
6:15 AM 30.4 °F 24.5 °F 24.4 °F 79% 29.94 in 10.0 mi North 5.8 mph - N/A   Clear
6:35 AM 29.7 °F 24.7 °F 24.1 °F 80% 29.94 in 10.0 mi North 4.6 mph - N/A   Clear
6:55 AM 28.4 °F 23.3 °F 23.5 °F 82% 29.94 in 10.0 mi NNE 4.6 mph - N/A   Clear
7:15 AM 27.3 °F - 23.0 °F 84% 29.95 in 10.0 mi Calm Calm - N/A   Clear
7:35 AM 27.1 °F - 23.0 °F 84% 29.96 in 10.0 mi Calm Calm - N/A   Clear
7:55 AM 26.1 °F 20.5 °F 22.3 °F 86% 29.97 in 10.0 mi North 4.6 mph - N/A   Clear
8:15 AM 26.6 °F 21.2 °F 22.8 °F 86% 29.98 in 10.0 mi North 4.6 mph - N/A   Clear
8:35 AM 26.6 °F 22.6 °F 22.6 °F 85% 29.98 in 10.0 mi North 3.5 mph - N/A   Clear
8:55 AM 28.0 °F 24.2 °F 23.4 °F 83% 29.99 in 10.0 mi North 3.5 mph - N/A   Clear
9:15 AM 28.9 °F 22.8 °F 23.7 °F 81% 30.00 in 10.0 mi NNE 5.8 mph - N/A   Clear
9:35 AM 29.3 °F 24.3 °F 23.7 °F 80% 30.00 in 10.0 mi NE 4.6 mph - N/A   Clear
9:55 AM 30.9 °F 26.2 °F 25.0 °F 79% 30.01 in 10.0 mi NNE 4.6 mph - N/A   Clear
10:15 AM 31.8 °F 26.2 °F 24.8 °F 75% 30.01 in 10.0 mi NE 5.8 mph - N/A   Clear
10:35 AM 32.2 °F 27.7 °F 25.9 °F 78% 30.00 in 10.0 mi NNE 4.6 mph - N/A   Clear
10:55 AM 32.0 °F 26.4 °F 25.9 °F 78% 30.00 in 10.0 mi North 5.8 mph - N/A   Clear
11:15 AM 32.7 °F 27.3 °F 26.1 °F 76% 29.99 in 10.0 mi NNE 5.8 mph - N/A   Clear
11:35 AM 34.0 °F 28.0 °F 26.6 °F 74% 29.97 in 10.0 mi ENE 6.9 mph - N/A   Clear
11:55 AM 34.7 °F 28.8 °F 26.6 °F 72% 29.96 in 10.0 mi NE 6.9 mph - N/A   Clear
12:15 PM 34.2 °F 29.0 °F 26.8 °F 74% 29.95 in 10.0 mi NNE 5.8 mph - N/A   Clear
12:35 PM 34.7 °F 31.8 °F 27.0 °F 73% 29.95 in 10.0 mi ENE 3.5 mph - N/A   Clear
12:55 PM 35.4 °F 31.5 °F 28.0 °F 75% 29.95 in 10.0 mi NNE 4.6 mph - N/A   Clear
1:15 PM 34.9 °F 30.8 °F 27.9 °F 76% 29.94 in 10.0 mi North 4.6 mph - N/A   Clear
1:35 PM 35.8 °F 30.9 °F 28.0 °F 73% 29.93 in 10.0 mi NE 5.8 mph - N/A   Clear
1:55 PM 35.1 °F 28.6 °F 27.7 °F 74% 29.91 in 10.0 mi NE 8.1 mph - N/A   Clear
2:15 PM 35.2 °F 29.5 °F 28.2 °F 76% 29.91 in 10.0 mi NE 6.9 mph - N/A   Clear
2:35 PM 34.9 °F 29.0 °F 28.0 °F 76% 29.91 in 10.0 mi NE 6.9 mph - N/A   Clear
2:55 PM 34.9 °F 29.0 °F 27.9 °F 76% 29.91 in 10.0 mi NE 6.9 mph - N/A   Clear
3:15 PM 35.1 °F 29.3 °F 27.5 °F 74% 29.92 in 10.0 mi NNE 6.9 mph - N/A   Clear
3:35 PM 35.2 °F 30.3 °F 27.7 °F 74% 29.93 in 10.0 mi NNE 5.8 mph - N/A   Clear
3:55 PM 35.1 °F 30.1 °F 27.3 °F 73% 29.94 in 10.0 mi NNE 5.8 mph - N/A   Clear
4:15 PM 34.2 °F 29.0 °F 26.8 °F 74% 29.94 in 10.0 mi NE 5.8 mph - N/A   Clear
4:35 PM 33.4 °F 28.1 °F 27.0 °F 77% 29.95 in 10.0 mi NE 5.8 mph - N/A   Clear
4:55 PM 32.9 °F 27.5 °F 26.6 °F 78% 29.95 in 10.0 mi NE 5.8 mph - N/A   Clear
5:15 PM 32.2 °F 26.7 °F 27.0 °F 81% 29.94 in 10.0 mi NE 5.8 mph - N/A   Clear
5:35 PM 32.0 °F 27.5 °F 27.1 °F 82% 29.95 in 10.0 mi NE 4.6 mph - N/A   Clear
5:55 PM 32.0 °F 25.6 °F 27.5 °F 83% 29.95 in 10.0 mi NE 6.9 mph - N/A   Clear
6:15 PM 31.8 °F 26.2 °F 27.5 °F 84% 29.94 in 10.0 mi NE 5.8 mph - N/A   Clear
6:35 PM 32.0 °F 25.6 °F 27.5 °F 83% 29.94 in 10.0 mi NE 6.9 mph - N/A   Clear
6:55 PM 31.8 °F 27.3 °F 27.5 °F 84% 29.94 in 10.0 mi NE 4.6 mph - N/A   Clear
7:15 PM 31.6 °F 26.0 °F 27.5 °F 85% 29.94 in 10.0 mi NNE 5.8 mph - N/A   Clear
7:35 PM 31.5 °F 24.9 °F 27.5 °F 85% 29.93 in 10.0 mi NE 6.9 mph - N/A   Clear
7:55 PM 31.1 °F 24.5 °F 27.5 °F 87% 29.93 in 7.0 mi NE 6.9 mph - N/A   Clear
8:15 PM 31.1 °F 24.5 °F 27.9 °F 88% 29.93 in 7.0 mi NE 6.9 mph - N/A   Clear
8:35 PM 31.1 °F 25.4 °F 27.7 °F 87% 29.93 in 7.0 mi NE 5.8 mph - N/A   Clear
8:55 PM 31.1 °F 25.4 °F 27.9 °F 88% 29.92 in 7.0 mi NE 5.8 mph - N/A   Clear
9:15 PM 30.9 °F 26.2 °F 27.7 °F 88% 29.93 in 7.0 mi NNE 4.6 mph - N/A   Clear
9:35 PM 30.7 °F 26.0 °F 27.5 °F 88% 29.92 in 7.0 mi NE 4.6 mph - N/A   Clear
9:55 PM 30.2 °F 26.7 °F 27.5 °F 90% 29.91 in 7.0 mi NE 3.5 mph - N/A   Clear
10:15 PM 30.2 °F 25.4 °F 27.3 °F 89% 29.92 in 7.0 mi North 4.6 mph - N/A   Clear
10:35 PM 30.2 °F 25.4 °F 27.5 °F 90% 29.92 in 5.0 mi North 4.6 mph - N/A   Clear
10:55 PM 30.2 °F 24.3 °F 27.5 °F 90% 29.91 in 7.0 mi North 5.8 mph - N/A   Mostly Cloudy
11:15 PM 30.0 °F 25.2 °F 27.1 °F 89% 29.91 in 7.0 mi North 4.6 mph - N/A   Overcast
11:35 PM 29.8 °F 24.9 °F 27.3 °F 90% 29.90 in 7.0 mi North 4.6 mph - N/A   Overcast
11:55 PM 30.0 °F 24.1 °F 27.3 °F 90% 29.89 in 5.0 mi North 5.8 mph - N/A   Overcast